Weather History for Jaipur, India

Change the Weather History Date:

Wednesday, February 20, 2013

  Actual Average Record
Temperature  
Mean Temperature 66 °F -  
Max Temperature 78 °F - - ()
Min Temperature 53 °F - - ()
Growing Degree Days 16 (Base 50)    
Moisture  
Dew Point 50 °F    
Average Humidity 56    
Maximum Humidity 88    
Minimum Humidity 21    
Precipitation  
Precipitation 0.00 in - - ()
Sea Level Pressure  
Sea Level Pressure 30.03 in    
Wind  
Wind Speed 2 mph ()    
Max Wind Speed 9 mph    
Max Gust Speed -    
Visibility 1.9 miles    
Events      
T = Trace of Precipitation, MM = Missing Value Source: Averaged Metar Reports

Daily Weather History Graph

Daily Weather History Graph

Search for Another Location

Airport:

Trip Planner

Search our weather history database for the weather conditions in past years. The results will help you decide how hot, cold, wet, or windy it might be!

Date:

Astronomy

Feb. 20, 2013 Rise Set
Actual Time 6:59 AM IST 6:22 PM IST
Civil Twilight 6:35 AM IST 6:45 PM IST
Nautical Twilight 6:08 AM IST 7:12 PM IST
Astronomical Twilight 5:41 AM IST 7:39 PM IST
Moon 1:36 PM IST (2/20) 2:41 AM IST (2/20)
Length of Visible Light 12h 10m
Length of Day
11h 23m
Waxing Gibbous, 72% of the Moon is Illuminated
Feb 20
Waxing Gibbous
Feb 26
Full
Mar 5
Last Quarter
Mar 12
New
Mar 19
First Quarter

Hourly Weather History & Observations

Time (IST) Temp. Dew Point Humidity Pressure Visibility Wind Dir Wind Speed Gust Speed Precip Events Conditions
12:00 AM 60.8 °F 51.8 °F 72% 30.01 in 1.2 mi Calm Calm - N/A   Smoke
1:00 AM 60.8 °F 51.8 °F 72% 30.01 in 1.2 mi NE 1.2 mph - N/A   Smoke
2:00 AM 57.2 °F 50.0 °F 77% 30.01 in 1.2 mi NNE 1.2 mph - N/A   Smoke
2:30 AM 57 °F 51 °F 73% 30.00 in 1 mi Calm Calm - -   Smoke
4:00 AM 57.2 °F 51.8 °F 82% 29.98 in 1.2 mi Calm Calm - N/A   Smoke
6:00 AM 55.4 °F 51.8 °F 88% 30.01 in 1.2 mi Calm Calm - N/A   Partly Cloudy
7:00 AM 55.4 °F 51.8 °F 88% 30.01 in 1.2 mi Calm Calm - N/A   Partly Cloudy
8:00 AM 55.4 °F 50.0 °F 82% 30.06 in 1.6 mi Calm Calm - N/A   Haze
8:30 AM 59 °F 53 °F 73% 30.10 in 1 mi NE 2.3 mph - -   Haze
8:30 AM 59.0 °F 51.8 °F 77% 30.09 in 1.6 mi NE 2.3 mph - N/A   Haze
9:00 AM 60.8 °F 51.8 °F 72% 30.09 in 1.9 mi NE 3.5 mph - N/A   Haze
10:00 AM 68.0 °F 48.2 °F 49% 30.12 in 2.5 mi NE 4.6 mph - N/A   Haze
11:00 AM 71.6 °F 46.4 °F 41% 30.12 in 2.5 mi East 4.6 mph - N/A   Haze
11:30 AM 72 °F 51 °F 37% 30.06 in 2 mi NE 3.5 mph - -   Haze
1:00 PM 73.4 °F 50.0 °F 44% 30.06 in 3.1 mi West 5.8 mph - N/A   Haze
2:00 PM 77.0 °F 48.2 °F 36% 30.04 in 3.1 mi SW 4.6 mph - N/A   Haze
2:30 PM 77 °F 44 °F 21% 29.97 in 2 mi West 9.2 mph - -   Haze
3:00 PM 77.0 °F 44.6 °F 32% 30.01 in 3.1 mi West 6.9 mph - N/A   Haze
4:00 PM 77.0 °F 44.6 °F 32% 30.01 in 3.1 mi WNW 4.6 mph - N/A   Haze
5:00 PM 73.4 °F 59.0 °F 61% 29.98 in 3.1 mi WSW 3.5 mph - N/A   Haze
5:30 PM 76 °F 46 °F 24% 29.95 in 2 mi NW 3.5 mph - -   Haze
6:00 PM 75.2 °F 46.4 °F 36% 30.01 in 3.1 mi WNW 2.3 mph - N/A   Haze
7:00 PM 69.8 °F 48.2 °F 46% 30.01 in 1.9 mi WNW 2.3 mph - N/A   Haze
7:30 PM 69.8 °F 48.2 °F 46% 30.01 in 1.9 mi WNW 3.5 mph - N/A   Haze
8:00 PM 69.8 °F 48.2 °F 46% 30.01 in 1.9 mi NW 3.5 mph - N/A   Haze
8:30 PM 67 °F 50 °F 43% 30.00 in 1 mi Calm Calm - -   Haze
9:00 PM 66.2 °F 50.0 °F 56% 30.04 in 1.6 mi Calm Calm - N/A   Haze
9:30 PM 66.2 °F 50.0 °F 56% 30.04 in 1.6 mi Calm Calm - N/A   Haze
10:00 PM 66.2 °F 50.0 °F 56% 30.04 in 1.6 mi Calm Calm - N/A   Haze
11:00 PM 64.4 °F 48.2 °F 56% 30.04 in 1.6 mi Calm Calm - N/A   Haze
11:30 PM 64 °F 49 °F 48% 30.02 in 1 mi Calm Calm - -   Haze